Meteopurmerend
purmerend
Purmerend - Baaienwijk



My webcam  My webcam


waarschuwing voor Onweer Meer informatie blitzortung!


Regen radar Meer informatie rain snow radar


Bezoek onze andere website:

CandyAppleRed WebdesignWebdesign Purmerend Candy Apple Red

MeteopurmerendBlog

Template documentation
and downloads



Onweer van: 19-06-2019 10:00 tot: 23:00 waarschuwing voor: Onweer niveau: Geel info button
Enkele onweersbuien, mogelijk met hagel en windstoten tot ca. 75 km/uur.Verkeer en buitenactiviteiten kunnen hinder ondervinden.Mijd open water en open gebied, schuil niet onder bomen.Volg weerberichten en waarschuwingen.

15 daagse weersverwachting Viborg (DK)

  • Overzicht
  • Per uur
  • 15 dagen
  • Extra
  • Vergelijk
  • Kaarten
  • Dagkaart
  • Meer »
  • Info
  • Statistieken
  • Directe link
    Temp 6h Neerslag Wind  
 04:34     22:15    Daglengte: 17:41 Vandaag
14:00
23°
 
4
20:00
24°
 
3
 04:34     22:16    Daglengte: 17:42 Morgen
02:00
18°
2.1 mm
2
warningclass
08:00
17°
 
4
14:00
18°
 
5
20:00
16°
 
4
 04:34     22:16    Daglengte: 17:42 Vrijdag 21 Jun
02:00
13°
 
3
08:00
14°
 
4
14:00
17°
5.1 mm
5
20:00
15°
1.6 mm
5
 04:34     22:16    Daglengte: 17:42 Zaterdag 22 Jun
02:00
10°
 
3
08:00
12°
 
4
Locatie info
Region: Midtjylland
Latitude: 56.4529°N
Longitude: 9.4058°E
50 masl
Postcode: 8800
Temp/Neerslag /Baro Onweer/Dauwpunt
    Temp Baro 1h Neerslag Dauwpunt Wind UV Bewolking  
 04:34     22:15    Daglengte: 17:41 Vandaag
13:00
22°
1009.1 hPa
11%
15.9°
3
Windvlaag: 5.2 m/s
36%
14:00
23°
1008.5 hPa
63%
16.9°
4
Windvlaag: 6.4 m/s
21%
15:00
24°
1007.7 hPa
67%
16.9°
5
Windvlaag: 6.9 m/s
17%
16:00
24°
1007.0 hPa
65%
16.7°
5
Windvlaag: 7.6 m/s
5%
17:00
25°
1006.1 hPa
64%
17.0°
5
Windvlaag: 8.2 m/s
7%
18:00
25°
1005.5 hPa
71%
17.7°
5
Windvlaag: 8.2 m/s
16%
19:00
24°
1005.0 hPa
25%
18.4°
4
Windvlaag: 7.6 m/s
40%
20:00
24°
1004.2 hPa
22%
18.3°
3
Windvlaag: 6.8 m/s
70%
21:00
22°
1004.7 hPa
13%
18.6°
2
Windvlaag: 10.4 m/s
50%
22:00
21°
1004.8 hPa
22%
17.0°
4
Windvlaag: 12.2 m/s
80%
23:00
20°
1004.9 hPa
26%
18.3°
2
Windvlaag: 11.7 m/s
87%
 04:34     22:16    Daglengte: 17:42 Morgen
00:00
19°
1004.2 hPa 1.1 mm
71%
18.1°
4
Windvlaag: 6.9 m/s
78%
01:00
18°
1003.8 hPa 1.1 mm
68%
17.4°
2
Windvlaag: 5.6 m/s
48%
02:00
18°
1003.7 hPa
82%
17.2°
2
Windvlaag: 2.7 m/s
47% warningclass
03:00
17°
1003.4 hPa
75%
16.5°
2
Windvlaag: 5 m/s
28%
04:00
17°
1003.2 hPa
31%
16.3°
2
Windvlaag: 4.7 m/s
44%
05:00
17°
1003.1 hPa
22%
16.0°
3
Windvlaag: 4.7 m/s
44%
06:00
17°
1003.3 hPa
74%
16.1°
3
Windvlaag: 5.2 m/s
33%
07:00
17°
1003.5 hPa
20%
15.8°
4
Windvlaag: 8 m/s
72%
08:00
17°
1003.7 hPa
16%
15.6°
4
Windvlaag: 8 m/s
82%
09:00
17°
1004.0 hPa
64%
15.4°
4
Windvlaag: 7.5 m/s
89%
10:00
17°
1004.5 hPa
19%
15.3°
4
Windvlaag: 6.9 m/s
88%
11:00
17°
1005.2 hPa
23%
15.1°
4
Windvlaag: 7 m/s
86%
12:00
17°
1006.0 hPa
55%
14.7°
4
Windvlaag: 6.9 m/s
85%
13:00
17°
1007.0 hPa
20%
14.6°
5
Windvlaag: 6.7 m/s
80%
14:00
18°
1007.5 hPa
16%
14.6°
5
Windvlaag: 7 m/s
76%
15:00
18°
1008.0 hPa
14%
14.3°
5
Windvlaag: 7.7 m/s
69%
16:00
18°
1008.4 hPa
14%
13.6°
5
Windvlaag: 7.2 m/s
67%
17:00
17°
1008.7 hPa
14%
12.5°
5
Windvlaag: 7 m/s
28%
18:00
17°
1009.0 hPa
14%
12.1°
5
Windvlaag: 6.2 m/s
15%
19:00
17°
1009.4 hPa
14%
11.5°
5
Windvlaag: 5.8 m/s
24%
20:00
16°
1009.9 hPa
14%
11.1°
4
Windvlaag: 5.7 m/s
49%
21:00
15°
1010.2 hPa
14%
10.9°
4
Windvlaag: 5.2 m/s
33%
22:00
14°
1010.8 hPa
14%
11.0°
3
Windvlaag: 4.7 m/s
16%
23:00
13°
1011.3 hPa
14%
11.1°
3
Windvlaag: 4.4 m/s
55%
 04:34     22:16    Daglengte: 17:42 Vrijdag 21 Jun
00:00
13°
1011.8 hPa
14%
11.0°
3
Windvlaag: 5 m/s
35%
01:00
13°
1012.1 hPa
14%
11.0°
3
Windvlaag: 5 m/s
51%
02:00
13°
1012.2 hPa
14%
11.3°
3
Windvlaag: 3.7 m/s
33%
03:00
12°
1012.4 hPa
14%
11.0°
3
Windvlaag: 3.3 m/s
27%
04:00
12°
1012.7 hPa
14%
10.7°
3
Windvlaag: 4 m/s
38%
05:00
12°
1012.9 hPa
14%
10.6°
3
Windvlaag: 4.2 m/s
47%
06:00
12°
1013.1 hPa
14%
10.7°
3
Windvlaag: 4 m/s
40%
07:00
13°
1013.5 hPa
14%
11.0°
3
Windvlaag: 5 m/s
27%
08:00
14°
1013.8 hPa
14%
10.6°
4
Windvlaag: 6.2 m/s
20%
09:00
15°
1014.1 hPa
35%
10.1°
4
Windvlaag: 6.3 m/s
19%
10:00
16°
1014.3 hPa
82%
9.8°
4
Windvlaag: 6.7 m/s
17%
11:00
16°
1014.5 hPa 1.1 mm
100%
8.4°
4
Windvlaag: 7.3 m/s
42%
12:00
17°
1014.5 hPa 1.3 mm
100%
7.7°
5
Windvlaag: 7.7 m/s
51%
13:00
17°
1014.6 hPa 1.3 mm
100%
8.6°
5
Windvlaag: 8.1 m/s
68%
14:00
17°
1014.9 hPa 1.4 mm
100%
8.7°
5
Windvlaag: 8.5 m/s
72%
15:00
17°
1015.0 hPa
100%
7.9°
5
Windvlaag: 8.7 m/s
59%
16:00
17°
1015.1 hPa 1.6 mm
100%
7.7°
5
Windvlaag: 8.5 m/s
57%
17:00
17°
1015.3 hPa
92%
7.5°
6
Windvlaag: 8.3 m/s
53%
18:00
17°
1015.5 hPa
85%
8.1°
6
Windvlaag: 8.1 m/s
11%
19:00
16°
1016.0 hPa
34%
8.5°
6
Windvlaag: 7.8 m/s
30%
20:00
15°
1016.6 hPa
37%
8.9°
5
Windvlaag: 7.3 m/s
19%
21:00
14°
1017.3 hPa
35%
8.5°
5
Windvlaag: 6.6 m/s
6%
22:00
12°
1018.0 hPa
27%
7.5°
4
Windvlaag: 6.2 m/s
4%
23:00
11°
1018.6 hPa
27%
7.7°
3
Windvlaag: 5.7 m/s
4%
 04:34     22:16    Daglengte: 17:42 Zaterdag 22 Jun
00:00
11°
1019.2 hPa
23%
7.7°
3
Windvlaag: 4.7 m/s
4%
01:00
10°
1019.7 hPa
21%
7.3°
3
Windvlaag: 4.6 m/s
11%
02:00
10°
Voelt als: 8.1°
1020.2 hPa
21%
6.9°
3
Windvlaag: 4.4 m/s
13%
03:00
Voelt als: 7.6°
1020.4 hPa
21%
7.6°
3
Windvlaag: 1.4 m/s
12%
04:00
Voelt als: 7.6°
1020.8 hPa
21%
7.5°
3
Windvlaag: 1.2 m/s
12%
05:00
Voelt als: 7.8°
1021.2 hPa
21%
7.5°
3
Windvlaag: 1 m/s
16%
06:00
10°
Voelt als: 8.4°
1021.6 hPa
21%
7.5°
3
Windvlaag: 0.9 m/s
11%
07:00
11°
1022.1 hPa
21%
7.7°
3
Windvlaag: 0.5 m/s
7%
08:00
12°
1022.6 hPa
22%
7.4°
4
Windvlaag: -0.2 m/s
11%
09:00
13°
1022.9 hPa
21%
7.3°
4
Windvlaag: 3.8 m/s
31%
10:00
14°
1023.0 hPa
21%
7.2°
4
Windvlaag: 3.2 m/s
32%
11:00
15°
1023.3 hPa
21%
7.2°
4
Windvlaag: 2.5 m/s
33%
12:00
16°
1023.6 hPa
21%
7.1°
4
Windvlaag: 1.8 m/s
53%
Temp/Neerslag /Baro Onweer/Dauwpunt
    Temp Baro Neerslag Dauwpunt Wind Bewolking  
 04:34     22:15    Daglengte: 17:41 Vandaag
14:00
23°
1008.5 hPa   16.9°
4
21%
17:00
25°
1006.1 hPa   17.0°
5
7%
20:00
24°
1004.2 hPa   18.3°
3
70%
23:00
20°
1004.9 hPa   18.3°
2
87%
 04:34     22:16    Daglengte: 17:42 Morgen
02:00
18°
1003.7 hPa 2.1 mm 17.2°
2
47% warningclass
05:00
17°
1003.1 hPa   16.0°
3
44%
08:00
17°
1003.7 hPa   15.6°
4
82%
11:00
17°
1005.2 hPa   15.1°
4
86%
14:00
18°
1007.5 hPa   14.6°
5
76%
17:00
17°
1008.7 hPa   12.5°
5
28%
20:00
16°
1009.9 hPa   11.1°
4
49%
23:00
13°
1011.3 hPa   11.1°
3
55%
 04:34     22:16    Daglengte: 17:42 Vrijdag 21 Jun
02:00
13°
1012.2 hPa   11.3°
3
33%
05:00
12°
1012.9 hPa   10.6°
3
47%
08:00
14°
1013.8 hPa   10.6°
4
20%
11:00
16°
1014.5 hPa 1.1 mm 8.4°
4
42%
14:00
17°
1014.9 hPa 3.9 mm 8.7°
5
72%
17:00
17°
1015.3 hPa 1.6 mm 7.5°
6
53%
20:00
15°
1016.6 hPa   8.9°
5
19%
23:00
11°
1018.6 hPa   7.7°
3
4%
 04:34     22:16    Daglengte: 17:42 Zaterdag 22 Jun
02:00
10°
Voelt als: 8.1°
1020.2 hPa   6.9°
3
13%
05:00
Voelt als: 7.8°
1021.2 hPa   7.5°
3
16%
08:00
12°
1022.6 hPa   7.4°
4
11%
11:00
15°
1023.3 hPa   7.2°
4
33%
14:00
17°
1023.9 hPa   6.5°
4
62%
17:00
16°
1024.8 hPa 8.0 mm 7.7°
3
23%
20:00
15°
1024.8 hPa 8.0 mm 8.2°
3
0%
23:00
12°
1025.5 hPa 8.0 mm 8.5°
2
45%
 04:35     22:16    Daglengte: 17:41 Zondag 23 Jun
02:00
Voelt als: 8.7°
1026.1 hPa 8.0 mm 8.2°
2
91%
05:00
11°
1026.5 hPa 8.0 mm 9.0°
1
67%
08:00
13°
1027.0 hPa 8.0 mm 10.0°
1
44%
11:00
16°
1027.3 hPa 8.0 mm 9.4°
1
68%
14:00
19°
1027.5 hPa 8.0 mm 7.6°
2
92%
17:00
18°
1027.2 hPa 8.0 mm 8.8°
2
82%
20:00
16°
1026.9 hPa 8.1 mm 9.8°
3
72%
23:00
13°
1027.8 hPa 8.1 mm 9.5°
2
81%
 04:35     22:16    Daglengte: 17:41 Maandag 24 Jun
02:00
11°
1028.6 hPa 8.1 mm 9.1°
1
90%
05:00
13°
1028.5 hPa 8.1 mm 9.3°
1
90%
08:00
15°
1028.5 hPa 8.1 mm 9.6°
0
90%
11:00
18°
1028.7 hPa 8.1 mm 10.6°
1
90%
14:00
21°
1028.8 hPa 8.1 mm 10.9°
1
91%
17:00
20°
1028.4 hPa 8.1 mm 12.2°
2
91%
20:00
19°
1028.0 hPa 8.1 mm 13.1°
3
91%
23:00
16°
1029.0 hPa 8.1 mm 11.7°
2
89%
 04:36     22:16    Daglengte: 17:40 Dinsdag 25 Jun
02:00
12°
1029.9 hPa 8.1 mm 10.2°
2
87%
05:00
14°
1029.7 hPa 8.1 mm 10.7°
2
84%
08:00
15°
1029.6 hPa 8.1 mm 11.1°
3
80%
11:00
19°
1029.5 hPa 8.1 mm 11.2°
3
84%
14:00
22°
1029.3 hPa 8.1 mm 10.3°
4
87%
17:00
22°
1028.8 hPa 8.1 mm 12.7°
4
87%
20:00
21°
1028.4 hPa 8.1 mm 14.7°
3
87%
23:00
18°
1028.7 hPa 8.1 mm 12.7°
3
89%
 04:36     22:16    Daglengte: 17:40 Woensdag 26 Jun
02:00
15°
1029.1 hPa 8.3 mm 11.1°
4
91%
05:00
16°
1028.2 hPa 8.5 mm 12.1°
4
77%
08:00
18°
1027.4 hPa 8.6 mm 13.3°
4
62%
11:00
21°
1026.5 hPa   14.4°
4
74%
14:00
24°
1025.5 hPa 17.1 mm 15.1°
4
85%
20:00
23°
1022.4 hPa 17.1 mm 15.7°
3
80%
 04:37     22:16    Daglengte: 17:39 Donderdag 27 Jun
02:00
15°
1020.2 hPa 17.1 mm 13.6°
2
45%
08:00
19°
1017.3 hPa 17.1 mm 15.0°
1
85%
14:00
25°
1016.1 hPa 17.1 mm 17.5°
3
1%
20:00
22°
1014.9 hPa 17.1 mm 14.9°
3
85%
 04:37     22:16    Daglengte: 17:39 Vrijdag 28 Jun
02:00
13°
1014.5 hPa 17.1 mm 12.2°
2
87%
08:00
18°
1013.5 hPa 17.1 mm 14.4°
2
90%
14:00
23°
1012.4 hPa 17.1 mm 15.0°
4
88%
20:00
20°
1010.3 hPa 17.2 mm 17.0°
3
86%
 04:38     22:15    Daglengte: 17:37 Zaterdag 29 Jun
02:00
14°
1010.0 hPa 19.6 mm 12.8°
4
68%
08:00
15°
1012.7 hPa 0.6 mm 11.0°
2
29%
14:00
21°
1012.9 hPa 0.2 mm 10.4°
2
24%
20:00
18°
1012.2 hPa 0.2 mm 10.6°
2
27%
 04:39     22:15    Daglengte: 17:36 Zondag 30 Jun
02:00
12°
1012.1 hPa 0.3 mm 9.3°
2
25%
08:00
15°
1011.5 hPa 0.7 mm 10.6°
1
33%
14:00
20°
1011.7 hPa 0.9 mm 10.8°
1
43%
20:00
18°
1010.7 hPa 0.5 mm 11.3°
1
41%
 04:40     22:15    Daglengte: 17:35 Maandag 01 Jul
02:00
12°
1010.9 hPa 0.1 mm 9.8°
1
29%
08:00
15°
1010.5 hPa 0.3 mm 10.6°
1
32%
14:00
20°
1010.6 hPa 0.5 mm 10.2°
2
42%
20:00
17°
1010.0 hPa 0.8 mm 10.4°
2
42%
 04:41     22:14    Daglengte: 17:33 Dinsdag 02 Jul
02:00
11°
1010.3 hPa 0.3 mm 8.9°
3
41%
08:00
14°
1010.2 hPa 0.4 mm 9.7°
3
43%
14:00
19°
1010.6 hPa 0.4 mm 9.9°
3
47%
20:00
17°
1010.4 hPa 0.2 mm 10.6°
3
41%
 04:41     22:13    Daglengte: 17:32 Woensdag 03 Jul
02:00
12°
1010.7 hPa   9.3°
2
33%
08:00
14°
1010.8 hPa 0.2 mm 10.1°
3
45%
14:00
19°
1011.8 hPa 0.6 mm 10.6°
3
48%
20:00
17°
1011.8 hPa 1.0 mm 10.8°
3
40%
 04:42     22:13    Daglengte: 17:31 Donderdag 04 Jul
02:00
12°
1012.3 hPa 0.1 mm 9.5°
3
33%
08:00
14°
1012.3 hPa 0.2 mm 10.6°
3
48%
  CAPE Lifted Index Hail Supercell Tornado SRH 3km CL BTM PRES CL TOP PRES Swiss DWD icon SMHI TS
 04:34     22:15    Daglengte: 17:41 Vandaag
13:00 1155 J/kg -4.3 K 0 % 0 % 0 % 0 m²/s² 0 0 -3.97 3
14:00 1427 J/kg -5.1 K 0 % 0 % 0 % 0 m²/s² 0 0 -4.2 80
15:00 1694 J/kg -5.9 K 0 % 0 % 0 % 0 m²/s² 0 0 -4.55 80
16:00 1514 J/kg -5.5 K 0 % 0 % 0 % 0 m²/s² 0 0 -3.76 1
17:00 1087 J/kg -3.8 K 0 % 0 % 0 % 0 m²/s² 0 0 -1.67 1
18:00 1923 J/kg -6.7 K 0 % 0 % 0 % 0 m²/s² 0 0 -4.96 3
19:00 2390 J/kg -8.0 K 0 % 0 % 0 % 0 m²/s² 0 0 -6.59 3
20:00 1265 J/kg -3.6 K 0 % 0 % 0 % 0 m²/s² 0 0 -1.95 0
21:00 1740 J/kg -6.3 K 0 % 0 % 0 % 0 m²/s² 0 0 -4.29 1
22:00 1566 J/kg -6.4 K 0 % 0 % 0 % 0 m²/s² 0 0 -5.11 3
23:00 887 J/kg -4.6 K 0 % 0 % 0 % 0 m²/s² 0 0 -3.61 3
 04:34     22:16    Daglengte: 17:42 Morgen
00:00 398 J/kg -1.9 K 0 % 0 % 0 % 0 m²/s² 0 0 -1.6 80
01:00 0 J/kg 0.2 K 0 % 0 % 0 % 0 m²/s² 0 0 1.25 80
02:00 3 J/kg 0.6 K 0 % 0 % 0 % 0 m²/s² 0 0 1.74 95
03:00 0 J/kg -1.4 K 0 % 0 % 0 % 0 m²/s² 0 0 0.25 2
04:00 0 J/kg 0.0 K 0 % 0 % 0 % 0 m²/s² 0 0 0 3
05:00 23 J/kg -0.1 K 0 % 0 % 0 % 0 m²/s² 0 0 0.89 3
06:00 0 J/kg 0.6 K 0 % 0 % 0 % 0 m²/s² 0 0 2.31 3
07:00 2 J/kg 0.5 K 0 % 0 % 0 % 0 m²/s² 0 0 2.39 3
08:00 6 J/kg -0.9 K 0 % 0 % 0 % 0 m²/s² 0 0 0.51 3
09:00 95 J/kg -1.1 K 0 % 0 % 0 % 0 m²/s² 0 0 -0.05 3
10:00 303 J/kg -1.5 K 0 % 0 % 0 % 0 m²/s² 0 0 -0.75 3
11:00 124 J/kg -0.9 K 0 % 0 % 0 % 0 m²/s² 0 0 -0 3
12:00 426 J/kg -1.8 K 0 % 0 % 0 % 0 m²/s² 0 0 -0.39 3
13:00 479 J/kg -2.1 K 0 % 0 % 0 % 0 m²/s² 0 0 -0.69 3
14:00 327 J/kg -1.3 K 0 % 0 % 0 % 0 m²/s² 0 0 -0.31 3
15:00 27 J/kg 1.0 K 0 % 0 % 0 % 0 m²/s² 0 0 2.02 3
16:00 21 J/kg 1.8 K 0 % 0 % 0 % 0 m²/s² 0 0 3.03 2
17:00 9 J/kg 2.8 K 0 % 0 % 0 % 0 m²/s² 0 0 3.4 2
18:00 2 J/kg 3.1 K 0 % 0 % 0 % 0 m²/s² 0 0 3.79 2
19:00 7 J/kg 2.9 K 0 % 0 % 0 % 0 m²/s² 0 0 4.7 1
20:00 3 J/kg 4.2 K 0 % 0 % 0 % 0 m²/s² 0 0 7.62 3
21:00 5 J/kg 4.5 K 0 % 0 % 0 % 0 m²/s² 0 0 8.58 0
22:00 2 J/kg 5.3 K 0 % 0 % 0 % 0 m²/s² 0 0 10.04 0
23:00 7 J/kg 5.8 K 0 % 0 % 0 % 0 m²/s² 0 0 11.47 1
 04:34     22:16    Daglengte: 17:42 Vrijdag 21 Jun
00:00 8 J/kg 6.8 K 0 % 0 % 0 % 0 m²/s² 0 0 11.66 1
01:00 11 J/kg 6.5 K 0 % 0 % 0 % 0 m²/s² 0 0 9.8 2
02:00 7 J/kg 6.1 K 0 % 0 % 0 % 0 m²/s² 0 0 9.04 2
03:00 16 J/kg 5.9 K 0 % 0 % 0 % 0 m²/s² 0 0 9.02 1
04:00 8 J/kg 6.7 K 0 % 0 % 0 % 0 m²/s² 0 0 11.38 0
05:00 2 J/kg 7.9 K 0 % 0 % 0 % 0 m²/s² 0 0 13.21 0
06:00 2 J/kg 8.5 K 0 % 0 % 0 % 0 m²/s² 0 0 13.81 2
07:00 2 J/kg 7.5 K 0 % 0 % 0 % 0 m²/s² 0 0 12.51 2
08:00 6 J/kg 5.8 K 0 % 0 % 0 % 0 m²/s² 0 0 10.81 3
09:00 48 J/kg 4.8 K 0 % 0 % 0 % 0 m²/s² 0 0 9.93 3
10:00 101 J/kg 3.9 K 0 % 0 % 0 % 0 m²/s² 0 0 8.88 3
11:00 109 J/kg 3.8 K 0 % 0 % 0 % 0 m²/s² 0 0 8.63 3
12:00 83 J/kg 4.4 K 0 % 0 % 0 % 0 m²/s² 0 0 9.11 80
13:00 61 J/kg 4.9 K 0 % 0 % 0 % 0 m²/s² 0 0 9.37 80
14:00 65 J/kg 4.9 K 0 % 0 % 0 % 0 m²/s² 0 0 9.25 80
15:00 74 J/kg 4.8 K 0 % 0 % 0 % 0 m²/s² 0 0 9.36 80
16:00 72 J/kg 4.4 K 0 % 0 % 0 % 0 m²/s² 0 0 8.63 2
17:00 50 J/kg 4.1 K 0 % 0 % 0 % 0 m²/s² 0 0 8.12 2
18:00 34 J/kg 4.0 K 0 % 0 % 0 % 0 m²/s² 0 0 7.27 1
19:00 42 J/kg 4.1 K 0 % 0 % 0 % 0 m²/s² 0 0 6.74 1
20:00 67 J/kg 4.3 K 0 % 0 % 0 % 0 m²/s² 0 0 6.94 1
21:00 53 J/kg 4.7 K 0 % 0 % 0 % 0 m²/s² 0 0 8 1
22:00 19 J/kg 5.7 K 0 % 0 % 0 % 0 m²/s² 0 0 9.18 1
23:00 20 J/kg 6.3 K 0 % 0 % 0 % 0 m²/s² 0 0 10.38 2
 04:34     22:16    Daglengte: 17:42 Zaterdag 22 Jun
00:00 20 J/kg 6.8 K 0 % 0 % 0 % 0 m²/s² 0 0 11.69 1
01:00 20 J/kg 7.5 K 0 % 0 % 0 % 0 m²/s² 0 0 12.78 1
02:00 2 J/kg 8.9 K 0 % 0 % 0 % 0 m²/s² 0 0 14.63 1
03:00 0 J/kg 10.0 K 0 % 0 % 0 % 0 m²/s² 0 0 16.45 2
04:00 0 J/kg 10.6 K 0 % 0 % 0 % 0 m²/s² 0 0 16.87 1
05:00 0 J/kg 10.8 K 0 % 0 % 0 % 0 m²/s² 0 0 17.07 1
06:00 0 J/kg 10.8 K 0 % 0 % 0 % 0 m²/s² 0 0 17.49 1
07:00 0 J/kg 10.2 K 0 % 0 % 0 % 0 m²/s² 0 0 17.13 1
08:00 0 J/kg 10.0 K 0 % 0 % 0 % 0 m²/s² 0 0 16.96 2
09:00 0 J/kg 10.4 K 0 % 0 % 0 % 0 m²/s² 0 0 17.6 1
10:00 0 J/kg 10.4 K 0 % 0 % 0 % 0 m²/s² 0 0 18.17 1
11:00 0 J/kg 9.8 K 0 % 0 % 0 % 0 m²/s² 0 0 17.57 0
12:00 1 J/kg 9.3 K 0 % 0 % 0 % 0 m²/s² 0 0 17.04 2
Temp Baro Wind Neerslag
  EWN Forecast EWN WRFDA DWD ICON FMI HIRLAM MET Norway GFS
 04:34     22:15    Daglengte: 17:41 Vandaag
14:00 23.0° 1008.5 hPa 3.9 m/s 0.0 mm 22.8° 1008.6 hPa 5.2 m/s 0.3 mm 22.7° 1008.6 hPa 2.2 m/s -1.6 mm 21.7° 1008.8 hPa 3.9 m/s 0.0 mm 25.4° 1008.1 hPa 4.4 m/s 22.3° 1009.4 hPa 4.5 m/s
17:00 24.7° 1006.1 hPa 5.1 m/s 0.0 mm 24.5° 1006.2 hPa 6.9 m/s 2.0 mm 24.0° 1006.4 hPa 4.5 m/s 0.5 mm 24.1° 1006.2 hPa 5.7 m/s 0.0 mm 26.0° 1005.7 hPa 4.9 m/s 0.0 mm 22.9° 1007.3 hPa 4.8 m/s
20:00 23.6° 1004.2 hPa 3.2 m/s 0.0 mm 22.1° 1003.8 hPa 6.7 m/s 2.4 mm 22.8° 1004.4 hPa 2.6 m/s 0.0 mm 24.0° 1005.2 hPa 1.9 m/s 0.0 mm 25.3° 1003.2 hPa 3.0 m/s 0.0 mm 20.1° 1005.2 hPa 3.9 m/s
23:00 19.8° 1004.9 hPa 2.2 m/s 0.0 mm 20.2° 1004.0 hPa 5.2 m/s 4.9 mm 20.2° 1004.8 hPa 1.9 m/s 0.0 mm 19.9° 1004.8 hPa 2.0 m/s 0.0 mm 17.9° 1005.8 hPa 1.5 m/s 3.8 mm 17.6° 1005.1 hPa 5.2 m/s
 04:34     22:16    Daglengte: 17:42 Morgen
02:00 17.9° 1003.7 hPa 1.9 m/s 2.1 mm 14.6° 1003.6 hPa 1.7 m/s 11.3 mm 18.5° 1004.4 hPa 1.9 m/s 2.0 mm 18.9° 1003.4 hPa 2.3 m/s 0.0 mm 16.9° 1003.5 hPa 1.6 m/s 0.6 mm 15.6° 1003.8 hPa 2.4 m/s
05:00 16.6° 1003.1 hPa 2.7 m/s 0.0 mm 14.6° 1002.7 hPa 2.2 m/s 11.4 mm 17.6° 1003.3 hPa 2.9 m/s 0.0 mm 17.2° 1003.1 hPa 3.0 m/s 0.0 mm 16.6° 1002.7 hPa 2.6 m/s 0.0 mm 14.6° 1002.7 hPa 3.0 m/s
08:00 16.9° 1003.7 hPa 3.8 m/s 0.0 mm 16.2° 1003.2 hPa 3.9 m/s 11.4 mm 16.5° 1004.5 hPa 3.5 m/s 0.1 mm 18.1° 1003.2 hPa 2.6 m/s 0.0 mm 17.2° 1003.4 hPa 5.8 m/s 0.0 mm 16.4° 1003.3 hPa 3.1 m/s
11:00 16.6° 1005.2 hPa 4.3 m/s 0.0 mm 16.2° 1004.2 hPa 4.0 m/s 12.0 mm 16.0° 1005.9 hPa 4.2 m/s 0.0 mm 20.9° 1004.0 hPa 3.5 m/s 0.0 mm 16.2° 1005.3 hPa 5.9 m/s 0.0 mm 18.0° 1004.7 hPa 3.9 m/s
14:00 17.5° 1007.5 hPa 5.1 m/s 0.0 mm 18.4° 1005.7 hPa 6.6 m/s 14.6 mm 16.6° 1008.0 hPa 4.1 m/s 0.0 mm 20.0° 1005.0 hPa 5.1 m/s 0.0 mm 17.3° 1008.1 hPa 5.3 m/s 0.0 mm 16.7° 1006.9 hPa 7.5 m/s
17:00 17.3° 1008.7 hPa 4.8 m/s 0.0 mm 16.3° 1007.6 hPa 6.4 m/s 15.8 mm 17.4° 1009.4 hPa 4.2 m/s 0.0 mm 17.1° 1006.9 hPa 6.2 m/s 0.0 mm 17.8° 1009.3 hPa 4.6 m/s 0.0 mm 15.6° 1008.8 hPa 6.3 m/s
20:00 15.9° 1009.9 hPa 4.3 m/s 0.0 mm 15.3° 1008.5 hPa 5.2 m/s 15.8 mm 16.0° 1010.8 hPa 3.2 m/s 0.0 mm 15.5° 1008.3 hPa 5.7 m/s 0.0 mm 17.3° 1010.1 hPa 4.2 m/s 0.0 mm 14.7° 1010.3 hPa 4.8 m/s
23:00 13.4° 1011.3 hPa 2.8 m/s 0.0 mm 11.8° 1009.9 hPa 3.8 m/s 15.8 mm 12.8° 1011.8 hPa 1.9 m/s 0.0 mm 12.9° 1010.6 hPa 2.5 m/s 0.0 mm 14.4° 1011.5 hPa 2.8 m/s 0.0 mm 10.6° 1011.8 hPa 3.4 m/s
 04:34     22:16    Daglengte: 17:42 Vrijdag 21 Jun
02:00 12.5° 1012.2 hPa 2.6 m/s 0.0 mm 9.5° 1011.4 hPa 3.1 m/s 15.9 mm 12.4° 1012.4 hPa 1.8 m/s 0.0 mm 11.6° 1011.3 hPa 3.6 m/s 0.0 mm 13.3° 1012.6 hPa 2.3 m/s 0.0 mm 9.6° 1012.8 hPa 3.4 m/s
05:00 11.8° 1012.9 hPa 2.8 m/s 0.0 mm 9.7° 1012.0 hPa 4.1 m/s 15.9 mm 11.0° 1013.3 hPa 1.5 m/s 0.0 mm 11.1° 1012.6 hPa 3.1 m/s 0.0 mm 12.5° 1013.0 hPa 2.5 m/s 0.0 mm 8.3° 1013.7 hPa 3.0 m/s
08:00 13.8° 1013.8 hPa 3.7 m/s 0.0 mm 11.4° 1012.8 hPa 4.5 m/s 16.0 mm 14.1° 1013.6 hPa 2.8 m/s 0.0 mm 13.7° 1013.9 hPa 3.8 m/s 0.0 mm 14.2° 1014.1 hPa 3.9 m/s 0.0 mm 12.7° 1014.5 hPa 4.6 m/s
11:00 16.2° 1014.5 hPa 4.2 m/s 1.1 mm 15.4° 1013.8 hPa 5.8 m/s 16.0 mm 15.1° 1014.5 hPa 3.5 m/s 0.2 mm 17.4° 1015.1 hPa 4.4 m/s 0.0 mm 15.6° 1015.8 hPa 5.9 m/s
14:00 17.1° 1014.9 hPa 5.3 m/s 3.9 mm 17.5° 1014.4 hPa 6.1 m/s 16.0 mm 16.0° 1014.7 hPa 4.2 m/s 0.8 mm 18.0° 1015.8 hPa 5.8 m/s 0.0 mm 17.1° 1016.4 hPa 6.3 m/s
17:00 16.9° 1015.3 hPa 5.7 m/s 1.6 mm 17.2° 1015.0 hPa 6.9 m/s 16.0 mm 16.6° 1015.0 hPa 4.6 m/s 0.4 mm 17.7° 1016.5 hPa 5.8 m/s 0.0 mm 16.4° 1016.8 hPa 6.2 m/s
20:00 15.0° 1016.6 hPa 5.1 m/s 0.0 mm 15.3° 1015.6 hPa 5.5 m/s 16.0 mm 14.2° 1016.1 hPa 4.4 m/s 0.0 mm 15.7° 1017.5 hPa 5.2 m/s 0.0 mm 14.0° 1017.3 hPa 4.1 m/s
23:00 11.4° 1018.6 hPa 3.5 m/s 0.0 mm 9.6° 1016.8 hPa 3.0 m/s 16.0 mm 11.4° 1017.7 hPa 2.9 m/s 0.0 mm 12.3° 1019.5 hPa 3.4 m/s 0.0 mm 9.3° 1018.9 hPa 3.0 m/s
 04:34     22:16    Daglengte: 17:42 Zaterdag 22 Jun
02:00 9.6° 1020.2 hPa 2.9 m/s 0.0 mm 7.7° 1018.5 hPa 2.9 m/s 16.0 mm 9.7° 1019.5 hPa 2.3 m/s 0.0 mm 10.2° 1021.2 hPa 2.9 m/s 0.0 mm 7.9° 1020.4 hPa 2.8 m/s
05:00 9.2° 1021.2 hPa 2.6 m/s 0.0 mm 6.2° 1019.4 hPa 2.8 m/s 16.0 mm 9.2° 1021.1 hPa 1.9 m/s 0.0 mm 9.5° 1021.6 hPa 2.6 m/s 0.0 mm 7.1° 1021.4 hPa 2.4 m/s
08:00 12.5° 1022.6 hPa 4.0 m/s 0.0 mm 12.5° 1020.5 hPa 2.8 m/s 16.0 mm 12.1° 1022.5 hPa 3.6 m/s 0.0 mm 12.6° 1023.0 hPa 4.8 m/s 0.0 mm 11.9° 1022.6 hPa 2.9 m/s
11:00 15.0° 1023.3 hPa 3.8 m/s 0.0 mm 15.7° 1021.1 hPa 2.1 m/s 16.0 mm 15.2° 1023.2 hPa 3.4 m/s 0.0 mm 14.6° 1023.9 hPa 4.5 m/s 15.0° 1023.9 hPa 2.4 m/s
14:00 17.1° 1023.9 hPa 3.7 m/s 0.0 mm 17.9° 1021.3 hPa 0.9 m/s 16.0 mm 17.5° 1023.5 hPa 3.7 m/s 0.0 mm 16.7° 1024.8 hPa 4.3 m/s 17.2° 1024.1 hPa 2.4 m/s
17:00 15.6° 1024.8 hPa 3.5 m/s 8.0 mm 15.5° 1024.9 hPa 3.5 m/s 16.9° 1023.8 hPa 3.1 m/s 8.0 mm
20:00 14.9° 1024.8 hPa 3.1 m/s 8.0 mm 14.9° 1024.9 hPa 3.1 m/s 14.3° 1023.7 hPa 3.3 m/s 8.0 mm
23:00 11.9° 1025.5 hPa 2.3 m/s 8.0 mm 12.1° 1025.6 hPa 2.4 m/s 9.2° 1024.4 hPa 1.6 m/s 8.0 mm
 04:35     22:16    Daglengte: 17:41 Zondag 23 Jun
02:00 9.2° 1026.1 hPa 1.5 m/s 8.0 mm 9.3° 1026.2 hPa 1.6 m/s 7.8° 1024.5 hPa 1.0 m/s 8.0 mm
05:00 11.0° 1026.5 hPa 1.2 m/s 8.0 mm 11.4° 1026.7 hPa 1.3 m/s 7.0° 1024.6 hPa 0.2 m/s 8.0 mm
08:00 13.4° 1027.0 hPa 1.0 m/s 8.0 mm 13.5° 1027.2 hPa 1.0 m/s 12.4° 1025.0 hPa 0.9 m/s 8.0 mm
11:00 16.2° 1027.3 hPa 1.4 m/s 8.0 mm 16.1° 1027.4 hPa 1.4 m/s 16.9° 1025.8 hPa 0.9 m/s 8.0 mm
14:00 18.8° 1027.5 hPa 1.8 m/s 8.0 mm 18.8° 1027.6 hPa 1.8 m/s 18.6° 1026.0 hPa 1.6 m/s 8.0 mm
17:00 17.5° 1027.2 hPa 2.4 m/s 8.0 mm 17.5° 1027.3 hPa 2.4 m/s 18.3° 1025.2 hPa 2.6 m/s 8.0 mm
20:00 16.0° 1026.9 hPa 3.0 m/s 8.1 mm 16.1° 1027.1 hPa 3.0 m/s 15.1° 1024.8 hPa 2.9 m/s 8.1 mm
23:00 13.5° 1027.8 hPa 1.8 m/s 8.1 mm 13.8° 1027.9 hPa 1.9 m/s 10.5° 1025.6 hPa 1.4 m/s 8.1 mm
 04:35     22:16    Daglengte: 17:41 Maandag 24 Jun
02:00 11.2° 1028.6 hPa 0.7 m/s 8.1 mm 11.4° 1028.8 hPa 0.7 m/s 9.4° 1026.0 hPa 0.8 m/s 8.1 mm
05:00 12.6° 1028.5 hPa 0.6 m/s 8.1 mm 13.0° 1028.8 hPa 0.5 m/s 8.6° 1025.4 hPa 1.1 m/s 8.1 mm
08:00 14.5° 1028.5 hPa 0.4 m/s 8.1 mm 14.6° 1028.7 hPa 0.3 m/s 13.9° 1025.9 hPa 1.2 m/s 8.1 mm
11:00 17.9° 1028.7 hPa 0.5 m/s 8.1 mm 17.9° 1028.8 hPa 0.4 m/s 18.1° 1026.6 hPa 1.1 m/s 8.1 mm
14:00 21.2° 1028.8 hPa 0.6 m/s 8.1 mm 21.2° 1029.0 hPa 0.6 m/s 21.1° 1026.8 hPa 1.2 m/s 8.1 mm
17:00 20.4° 1028.4 hPa 1.7 m/s 8.1 mm 20.4° 1028.6 hPa 1.6 m/s 20.8° 1026.3 hPa 3.3 m/s 8.1 mm
20:00 19.5° 1028.0 hPa 2.6 m/s 8.1 mm 19.6° 1028.2 hPa 2.6 m/s 18.3° 1025.8 hPa 2.9 m/s 8.1 mm
23:00 15.6° 1029.0 hPa 2.3 m/s 8.1 mm 15.7° 1029.2 hPa 2.3 m/s 14.0° 1026.9 hPa 2.9 m/s 8.1 mm
 04:36     22:16    Daglengte: 17:40 Dinsdag 25 Jun
02:00 12.0° 1029.9 hPa 2.1 m/s 8.1 mm 11.8° 1030.2 hPa 2.0 m/s 14.1° 1026.4 hPa 3.5 m/s 8.1 mm
05:00 13.7° 1029.7 hPa 2.3 m/s 8.1 mm 13.6° 1030.1 hPa 2.2 m/s 14.5° 1026.2 hPa 3.1 m/s 8.1 mm
08:00 15.4° 1029.6 hPa 2.7 m/s 8.1 mm 15.4° 1029.9 hPa 2.5 m/s 15.0° 1026.2 hPa 4.4 m/s 8.1 mm
11:00 18.6° 1029.5 hPa 3.4 m/s 8.1 mm 18.8° 1029.8 hPa 3.3 m/s 16.9° 1026.2 hPa 5.0 m/s 8.1 mm
14:00 21.9° 1029.3 hPa 4.1 m/s 8.1 mm 22.2° 1029.6 hPa 4.1 m/s 19.1° 1025.8 hPa 4.3 m/s 8.1 mm
17:00 21.8° 1028.8 hPa 3.8 m/s 8.1 mm 21.8° 1029.2 hPa 3.6 m/s 22.8° 1025.1 hPa 5.5 m/s 8.1 mm
20:00 21.3° 1028.4 hPa 3.2 m/s 8.1 mm 21.3° 1028.7 hPa 3.1 m/s 20.8° 1024.6 hPa 4.0 m/s 8.1 mm
23:00 18.1° 1028.7 hPa 3.5 m/s 8.1 mm 18.3° 1029.1 hPa 3.4 m/s 15.5° 1024.9 hPa 4.5 m/s 8.1 mm
 04:36     22:16    Daglengte: 17:40 Woensdag 26 Jun
02:00 15.2° 1029.1 hPa 3.7 m/s 8.3 mm 15.3° 1029.5 hPa 3.7 m/s 14.5° 1024.5 hPa 3.6 m/s 8.3 mm
05:00 16.4° 1028.2 hPa 3.7 m/s 8.5 mm 16.6° 1028.7 hPa 3.7 m/s 14.5° 1023.5 hPa 3.8 m/s 8.5 mm
08:00 17.8° 1027.4 hPa 3.8 m/s 8.6 mm 17.8° 1027.8 hPa 3.7 m/s 17.9° 1023.1 hPa 5.0 m/s 8.6 mm
11:00 20.9° 1026.5 hPa 4.1 m/s 8.6 mm 20.9° 1026.8 hPa 4.0 m/s 21.2° 1023.5 hPa 6.0 m/s 8.6 mm
14:00 23.8° 1025.5 hPa 4.4 m/s 8.6 mm 23.9° 1025.7 hPa 4.2 m/s 23.0° 1023.2 hPa 6.3 m/s 8.6 mm
20:00 22.5° 1022.4 hPa 2.9 m/s 8.6 mm 22.6° 1022.4 hPa 2.8 m/s 21.4° 1022.3 hPa 4.4 m/s 8.6 mm
 04:37     22:16    Daglengte: 17:39 Donderdag 27 Jun
02:00 15.4° 1020.2 hPa 1.9 m/s 8.6 mm 15.4° 1020.0 hPa 1.8 m/s 15.9° 1022.1 hPa 3.3 m/s 8.6 mm
08:00 18.7° 1017.3 hPa 1.2 m/s 8.6 mm 18.7° 1016.9 hPa 0.9 m/s 18.7° 1021.4 hPa 4.0 m/s 8.6 mm
14:00 24.6° 1016.1 hPa 3.0 m/s 8.6 mm 24.6° 1015.7 hPa 2.8 m/s 25.0° 1021.0 hPa 4.8 m/s 8.6 mm
20:00 21.6° 1014.9 hPa 2.6 m/s 8.6 mm 21.4° 1014.5 hPa 2.6 m/s 23.3° 1019.5 hPa 2.9 m/s 8.6 mm
 04:37     22:16    Daglengte: 17:39 Vrijdag 28 Jun
02:00 13.2° 1014.5 hPa 1.5 m/s 8.6 mm 13.0° 1014.1 hPa 1.4 m/s 15.7° 1018.8 hPa 3.1 m/s 8.6 mm
08:00 17.9° 1013.5 hPa 2.3 m/s 8.6 mm 17.8° 1013.3 hPa 2.2 m/s 18.9° 1016.1 hPa 3.7 m/s 8.6 mm
14:00 22.5° 1012.4 hPa 4.2 m/s 8.6 mm 22.1° 1012.2 hPa 4.2 m/s 27.0° 1014.2 hPa 3.9 m/s 8.6 mm
20:00 20.0° 1010.3 hPa 3.5 m/s 8.6 mm 19.8° 1010.0 hPa 3.3 m/s 22.4° 1013.4 hPa 5.6 m/s 8.6 mm
 04:38     22:15    Daglengte: 17:37 Zaterdag 29 Jun
02:00 14.4° 1010.0 hPa 4.0 m/s 10.3 mm 14.4° 1009.6 hPa 3.9 m/s 14.1° 1014.7 hPa 5.6 m/s 10.3 mm
08:00 15.3° 1012.7 hPa 1.5 m/s 0.6 mm
14:00 20.9° 1012.9 hPa 2.0 m/s 0.2 mm
20:00 18.1° 1012.2 hPa 2.3 m/s 0.2 mm
 04:39     22:15    Daglengte: 17:36 Zondag 30 Jun
02:00 11.9° 1012.1 hPa 1.8 m/s 0.3 mm
08:00 14.9° 1011.5 hPa 1.5 m/s 0.7 mm
14:00 20.1° 1011.7 hPa 1.2 m/s 0.9 mm
20:00 18.1° 1010.7 hPa 1.4 m/s 0.5 mm
 04:40     22:15    Daglengte: 17:35 Maandag 01 Jul
02:00 12.2° 1010.9 hPa 1.4 m/s 0.1 mm
08:00 14.9° 1010.5 hPa 1.2 m/s 0.3 mm
14:00 19.8° 1010.6 hPa 2.0 m/s 0.5 mm
20:00 17.2° 1010.0 hPa 2.3 m/s 0.8 mm
 04:41     22:14    Daglengte: 17:33 Dinsdag 02 Jul
02:00 11.3° 1010.3 hPa 2.6 m/s 0.3 mm
08:00 13.8° 1010.2 hPa 2.8 m/s 0.4 mm
14:00 18.8° 1010.6 hPa 2.5 m/s 0.4 mm
20:00 17.1° 1010.4 hPa 2.6 m/s 0.2 mm
 04:41     22:13    Daglengte: 17:32 Woensdag 03 Jul
02:00 11.7° 1010.7 hPa 2.2 m/s 0.0 mm
08:00 14.4° 1010.8 hPa 2.6 m/s 0.2 mm
14:00 19.2° 1011.8 hPa 3.0 m/s 0.6 mm
20:00 16.9° 1011.8 hPa 3.1 m/s 1.0 mm
 04:42     22:13    Daglengte: 17:31 Donderdag 04 Jul
02:00 11.9° 1012.3 hPa 2.6 m/s 0.1 mm
08:00 14.1° 1012.3 hPa 3.1 m/s 0.2 mm
FMI Hirlam - 7.5 km EWN WRFDA - 12 km DWD ICON - 7 km GFS - 25 km Basiskaart






























































Updatetijd (Europe/Amsterdam) Resolutie Lengte Stap
FMI Hirlam 07:00, 13:00, 19:00, 01:00 7.5 km 49h 1h
EWN WRFDA 10:15, 16:15, 22:15, 04:15 12 km 73h 1h
DWD ICON 11:45, 17:45, 23:45, 05:45 7 km 75h 1h
GFS 08:45, 14:45, 20:45, 02:45 25 km 237h 3h
30+ mm
25-30 mm
20-25 mm
15-20 mm
10-15 mm
6-10 mm
4-6 mm
2-4 mm
1-2 mm
0.5-1 mm
0.2-0.5 mm
0.1-0.2 mm
30+ mm
25-30 mm
20-25 mm
15-20 mm
10-15 mm
6-10 mm
4-6 mm
2-4 mm
1-2 mm
0.5-1 mm
0.2-0.5 mm
0.1-0.2 mm
Sneeuwval
Natte sneeuw
Hagel
Vorst
30+ mm
25-30 mm
20-25 mm
15-20 mm
10-15 mm
6-10 mm
4-6 mm
2-4 mm
1-2 mm
0.5-1 mm
0.2-0.5 mm
0.1-0.2 mm
Sneeuwval
Natte sneeuw
Hagel
Vorst
Onweer
50 mm
40 mm
30 mm
26 mm
22 mm
18 mm
14 mm
10 mm
9 mm
8 mm
7 mm
6 mm
5 mm
4.5 mm
4 mm
3.5 mm
3 mm
2.5 mm
2 mm
1.5 mm
1 mm
0.8 mm
0.6 mm
0.4 mm
0.2 mm
0.05 mm
35°
30°
25°
20°
15°
10°
-5°
-10°
-15°
-20°
-25°
-30°
-35°
33> m/s
29 m/s
25 m/s
21 m/s
17 m/s
14 m/s
11 m/s
8 m/s
5 m/s
3 m/s
0 m/s
2600 J/kg
2400 J/kg
2200 J/kg
2000 J/kg
1800 J/kg
1600 J/kg
1400 J/kg
1200 J/kg
1000 J/kg
800 J/kg
600 J/kg
400 J/kg
200 J/kg
70 dBZ
65 dBZ
60 dBZ
55 dBZ
50 dBZ
45 dBZ
40 dBZ
35 dBZ
30 dBZ
25 dBZ
20 dBZ
15 dBZ
10 dBZ
5 dBZ
-1 K
-2 K
-3 K
-4 K
-5 K
-6 K
-7 K
-8 K
-9 K
950 m²/s²
900 m²/s²
850 m²/s²
800 m²/s²
750 m²/s²
700 m²/s²
650 m²/s²
600 m²/s²
550 m²/s²
500 m²/s²
450 m²/s²
400 m²/s²
350 m²/s²
300 m²/s²
250 m²/s²
200 m²/s²
150 m²/s²
100 m²/s²
46 m/s
44 m/s
42 m/s
40 m/s
38 m/s
36 m/s
34 m/s
32 m/s
30 m/s
28 m/s
26 m/s
24 m/s
22 m/s
20 m/s
16 m/s
12 m/s
8 m/s
4 m/s
30 m/s
28 m/s
26 m/s
24 m/s
22 m/s
20 m/s
18 m/s
16 m/s
14 m/s
12 m/s
10 m/s
8 m/s
6 m/s
4 m/s
2 m/s
3.0
2.8
2.6
2.4
2.2
2.0
1.8
1.6
1.4
1.2
1.0
0.8
0.6
0.4
0.2
15
14
13
12
11
10
9
8
7
6
5
4
3
2
1
90%
80%
70%
60%
50%
40%
30%
20%
10%
42
40
38
36
34
32
30
28
26
24
22
20
18
16
14
12
90+ cm
80-90 cm
70-80 cm
60-70 cm
50-60 cm
40-50 cm
30-40 cm
20-30 cm
10-20 cm
1-10 cm
Sneeuwval
Natte sneeuw
Regen
>120 mm
115 mm
110 mm
105 mm
100 mm
95 mm
90 mm
85 mm
80 mm
75 mm
70 mm
65 mm
60 mm
55 mm
50 mm
45 mm
45 mm
40 mm
35 mm
30 mm
25 mm
20 mm
15 mm
10 mm
5 mm
0.1 mm
960 hPa
880 hPa
800 hPa
720 hPa
640 hPa
560 hPa
584 gpdm
568 gpdm
552 gpdm
536 gpdm
520 gpdm
504 gpdm
488 gpdm
Extreem zwaar Noodweer Kans op onweer
15% 15% 5% 50% 15%

Dag




Kaart






35°
30°
25°
20°
15°